Omak, WA

6:25 AM PDT on October 18, 2017 (GMT -0700)
Omak

Weather History for KOMK - May, 2011

Change the Weather History Date:

Thursday, May 19, 2011

  Actual Average Record
Temperature  
Mean Temperature 63 °F 59 °F  
Max Temperature 79 °F 73 °F 89 °F (1993)
Min Temperature 46 °F 45 °F 30 °F (2003)
Degree Days  
Heating Degree Days 2 7  
Month to date heating degree days 214 173  
Since 1 July heating degree days 6509 6212  
Cooling Degree Days 0 1  
Month to date cooling degree days 0 9  
Year to date cooling degree days 0 10  
Growing Degree Days 12 (Base 50)    
Moisture  
Dew Point 30 °F    
Average Humidity 33    
Maximum Humidity 54    
Minimum Humidity 11    
Precipitation  
Precipitation 0.00 in 0.03 in 0.67 in (2010)
Month to date precipitation 1.05 0.78  
Year to date precipitation 4.97 6.31  
Sea Level Pressure  
Sea Level Pressure 29.96 in    
Wind  
Wind Speed 10 mph (NNW)    
Max Wind Speed 17 mph    
Max Gust Speed 23 mph    
Visibility 10 miles    
Events      
T = Trace of Precipitation, MM = Missing Value Source: NWS Daily Summary

Daily Weather History Graph

Daily Weather History Graph

Search for Another Location

Airport or City:

Trip Planner

Search our weather history database for the weather conditions in past years. The results will help you decide how hot, cold, wet, or windy it might be!

Date:

Astronomy

May. 19, 2011 Rise Set
Actual Time 5:13 AM PDT 8:36 PM PDT
Civil Twilight 4:34 AM PDT 9:15 PM PDT
Nautical Twilight 3:44 AM PDT 10:06 PM PDT
Astronomical Twilight 2:37 AM PDT 11:13 PM PDT
Moon 11:23 PM PDT (5/19) 6:58 AM PDT (5/19)
Length of Visible Light 16h 40m
Length of Day
15h 23m
Waning Gibbous, 93% of the Moon is Illuminated
May 19
Waning Gibbous
May 24
Last Quarter
Jun 1
New
Jun 8
First Quarter
Jun 15
Full

Hourly Weather History & Observations

Time (PDT) Temp. Dew Point Humidity Pressure Visibility Wind Dir Wind Speed Gust Speed Precip Events Conditions
12:53 AM 53.1 °F 30.9 °F 43% 29.93 in 10.0 mi WNW 10.4 mph - N/A   Clear
1:53 AM 52.0 °F 30.9 °F 45% 29.94 in 10.0 mi WNW 10.4 mph - N/A   Clear
2:53 AM 51.1 °F 30.9 °F 46% 29.96 in 10.0 mi WNW 9.2 mph - N/A   Clear
3:53 AM 48.9 °F 32.0 °F 52% 29.97 in 10.0 mi WNW 10.4 mph - N/A   Clear
4:53 AM 46.9 °F 30.9 °F 54% 29.98 in 10.0 mi WNW 11.5 mph - N/A   Clear
5:53 AM 48.9 °F 30.9 °F 50% 29.98 in 10.0 mi NW 12.7 mph - N/A   Clear
6:53 AM 54.0 °F 34.0 °F 47% 30.00 in 10.0 mi NNW 9.2 mph - N/A   Clear
7:53 AM 57.9 °F 34.0 °F 41% 30.00 in 10.0 mi NNW 12.7 mph - N/A   Clear
8:53 AM 61.0 °F 33.1 °F 35% 30.01 in 10.0 mi NNW 12.7 mph - N/A   Clear
9:53 AM 64.0 °F 30.9 °F 29% 29.99 in 10.0 mi North 17.3 mph - N/A   Clear
10:53 AM 68.0 °F 34.0 °F 28% 29.99 in 10.0 mi North 15.0 mph 19.6 mph N/A   Clear
11:53 AM 72.0 °F 33.1 °F 24% 29.97 in 10.0 mi North 12.7 mph 21.9 mph N/A   Clear
12:53 PM 73.9 °F 28.9 °F 19% 29.96 in 10.0 mi NNE 12.7 mph 18.4 mph N/A   Clear
1:53 PM 75.9 °F 26.1 °F 16% 29.95 in 10.0 mi NNE 9.2 mph 17.3 mph N/A   Clear
2:53 PM 77.0 °F 24.1 °F 14% 29.94 in 10.0 mi North 10.4 mph - N/A   Clear
3:53 PM 78.1 °F 26.1 °F 15% 29.92 in 10.0 mi North 9.2 mph - N/A   Clear
4:53 PM 78.1 °F 24.1 °F 14% 29.91 in 10.0 mi NNE 9.2 mph - N/A   Clear
5:53 PM 78.1 °F 19.0 °F 11% 29.91 in 10.0 mi North 6.9 mph - N/A   Clear
6:53 PM 75.0 °F 28.9 °F 18% 29.91 in 10.0 mi NNW 5.8 mph - N/A   Clear
7:53 PM 68.0 °F 33.1 °F 27% 29.93 in 10.0 mi West 4.6 mph - N/A   Clear
8:53 PM 64.9 °F 33.1 °F 31% 29.94 in 10.0 mi WSW 4.6 mph - N/A   Mostly Cloudy
9:53 PM 62.1 °F 32.0 °F 32% 29.96 in 10.0 mi West 10.4 mph - N/A   Clear
10:53 PM 57.0 °F 33.1 °F 40% 29.97 in 10.0 mi West 8.1 mph - N/A   Clear
11:53 PM 50.0 °F 34.0 °F 54% 29.98 in 10.0 mi NW 6.9 mph - N/A   Clear